Location: Oulou
(10.7667°N, 12.5167°W)
Time: 20:38:05
(UTC+00:00)

Okean 2 - Pass Details

Date: 20 September 2019
Orbit: 560 x 577 km, 82.5° (Epoch: 17 October)

Event Time Altitude Azimuth Distance (km) Brightness Sun altitude
Rises 19:30:08 0° 347° (NNW) 2,749 7.1 -11.3°
Reaches altitude 10° 19:32:21 10° 342° (NNW) 1,856 6.3 -11.8°
Maximum altitude 19:36:18 49° 267° (W) 730 4.4 -12.8°
Drops below altitude 10° 19:40:17 10° 191° (SSW) 1,867 6.1 -13.8°
Sets 19:42:31 0° 186° (S) 2,767 6.9 -14.3°
